Location: *
(43.2048°N, 0.1612°E)
Time: 17:29:32
(UTC+00:00)

Cosmos 1805 Rocket - Pass Details

Date: 30 September 2023
Orbit: 604 x 626 km, 82.5° (Epoch: 05 December)

Event Time Altitude Azimuth Distance (km) Brightness Sun altitude
Rises 03:57:51 0° 355° (N) 2,872 7.1 -21.9°
Reaches altitude 10° 04:00:06 10° 359° (N) 1,966 6.3 -21.5°
Maximum altitude 04:04:24 60° 80° (E) 702 4.1 -20.8°
Drops below altitude 10° 04:08:41 10° 160° (SSE) 1,960 6.2 -20.0°
Sets 04:10:56 0° 164° (SSE) 2,863 7.0 -19.6°
